This demonstration page uses our WeatherBlox Daily Observations layout. Learn more.

Left ArrowRight Arrow

Hourly Observations for January 19, 2017

Temp ( °F °C ) Dew Point ( °F °C ) Humidity (%) Winds ( mph kmh ) Pressure ( in mb ) Visibility ( mi km ) Precip ( " mm )
12:53 am 00:53 Clear 37 2.8 34 1.1 89 89 S 12 19 29.80 1009 10 16 0.00 0.00
1:53 am 01:53 Clear 36 2.2 33 0.6 89 89 SSE 8 13 29.79 1009 10 16 0.00 0.00
2:25 am 02:25 Partly Cloudy 36 2.2 33 0.6 89 89 SSE 8 13 29.83 1010 9 14 0.00 0.00
2:34 am 02:34 Mostly Cloudy 36 2.2 34 1.1 93 93 SSE 9 15 29.83 1010 9 14 0.00 0.00
2:53 am 02:53 Cloudy with Mist and Fog 36 2.2 34 1.1 93 93 SSE 8 13 29.78 1009 6 10 0.00 0.00
3:04 am 03:04 Cloudy with Mist and Fog 36 2 36 2 100 100 S 8 13 29.80 1009 2 3 0.00 0.00
3:17 am 03:17 Mostly Cloudy with Fog 36 2.2 35 1.7 97 97 S 8 13 29.80 1009 1 1 0.00 0.00
3:53 am 03:53 Mostly Cloudy with Fog 38 3.3 37 2.8 97 97 S 9 15 29.76 1008 0 0 0.00 0.00
4:53 am 04:53 Mostly Cloudy with Fog 37 2.8 36 2.2 96 96 S 6 9 29.76 1008 0 0 0.00 0.00
5:53 am 05:53 Mostly Cloudy with Fog 38 3.3 38 3.3 100 100 S 5 7 29.75 1008 1 1 0.00 0.00
6:53 am 06:53 Mostly Cloudy with Fog 38 3.3 38 3.3 100 100 SSE 7 11 29.73 1007 1 1 0.00 0.00
7:53 am 07:53 Mostly Cloudy with Fog 37 2.8 37 2.8 100 100 SE 7 11 29.73 1007 1 1 0.00 0.00
8:53 am 08:53 Mostly Cloudy with Fog 38 3.3 37 2.8 97 97 SSE 6 9 29.72 1007 0 0 0.00 0.00
9:53 am 09:53 Mostly Cloudy with Fog 38 3.3 37 2.8 97 97 SSE 7 11 29.73 1007 0 0 0.00 0.00
10:53 am 10:53 Cloudy with Mist and Fog 39 3.9 38 3.3 96 96 SSE 7 11 29.71 1006 1 2 0.00 0.00
11:16 am 11:16 Cloudy with Mist and Fog 39 4 39 4 100 100 SE 9 15 29.74 1007 1 1 0.00 0.00
11:53 am 11:53 Mostly Cloudy with Fog 41 5 40 4.4 96 96 SSE 9 15 29.70 1006 1 1 0.00 0.00
12:29 pm 12:29 Cloudy with Mist and Fog 41 5 39 4 93 93 SSE 8 13 29.71 1006 1 2 0.00 0.00
12:36 pm 12:36 Cloudy with Mist and Fog 41 5 39 4 93 93 SSE 9 15 29.71 1006 1 1 0.00 0.00
12:53 pm 12:53 Cloudy with Mist and Fog 41 5 41 5 100 100 SSE 8 13 29.66 1005 1 2 0.00 0.00
1:32 pm 13:32 Cloudy with Mist and Fog 42 5.6 41 5 96 96 SSE 7 11 29.68 1005 2 3 0.00 0.00
1:53 pm 13:53 Cloudy with Mist and Fog 42 5.6 41 5 96 96 SSE 8 13 29.65 1004 3 5 0.00 0.00
2:53 pm 14:53 Cloudy with Mist and Fog 42 5.6 41 5 96 96 SSE 7 11 29.64 1004 4 6 0.00 0.00
3:11 pm 15:11 Cloudy 42 5.6 41 5 96 96 S 8 13 29.68 1005 7 11 0.00 0.00
3:53 pm 15:53 Cloudy with Mist and Fog 42 5.6 41 5 96 96 S 6 9 29.64 1004 6 10 0.00 0.00
4:03 pm 16:03 Cloudy with Mist and Fog 42 5.6 41 5 96 96 S 6 9 29.68 1005 4 6 0.00 0.00
4:53 pm 16:53 Cloudy with Mist and Fog 42 5.6 41 5 96 96 Calm 29.64 1004 6 10 0.00 0.00
5:36 pm 17:36 Cloudy with Mist and Fog 41 5 39 4 93 93 Calm 29.68 1005 2 3 0.00 0.00
5:53 pm 17:53 Cloudy with Mist and Fog 41 5 40 4.4 96 96 Calm 29.65 1004 1 2 0.00 0.00
6:02 pm 18:02 Cloudy with Mist and Fog 41 5 39 4 93 93 Calm 29.68 1005 1 2 0.00 0.00
6:11 pm 18:11 Cloudy with Fog 40 4.4 38 3.3 93 93 Calm 29.68 1005 1 1 0.00 0.00
6:18 pm 18:18 Cloudy with Fog 40 4.4 39 3.9 97 97 Calm 29.68 1005 1 1 0.00 0.00
6:53 pm 18:53 Mostly Cloudy with Fog 40 4.4 39 3.9 97 97 SE 5 7 29.65 1004 1 1 0.00 0.00
7:15 pm 19:15 Cloudy with Mist and Fog 41 5 40 4.4 96 96 SSE 3 6 29.68 1005 1 1 0.00 0.00
7:37 pm 19:37 Cloudy with Fog 40 4.4 39 3.9 97 97 SE 8 13 29.65 1004 1 1 0.00 0.00
7:53 pm 19:53 Mostly Cloudy with Fog 40 4.4 39 3.9 97 97 SE 9 15 29.62 1003 1 1 0.00 0.00
8:53 pm 20:53 Mostly Cloudy with Fog 40 4.4 39 3.9 97 97 SSE 7 11 29.61 1003 1 1 0.00 0.00
9:53 pm 21:53 Mostly Cloudy with Fog 39 3.9 39 3.9 100 100 S 5 7 29.60 1003 1 1 0.00 0.00
10:53 pm 22:53 Mostly Cloudy with Fog 39 3.9 38 3.3 96 96 S 3 6 29.61 1003 0 0 0.00 0.00
11:53 pm 23:53 Mostly Cloudy with Fog 38 3.3 37 2.8 97 97 Calm 29.62 1003 0 0 0.00 0.00

Powered by AerisWeather